Location: Amparo Village
(14.2300°N, 120.9119°E)
Time: 05:53:29
(UTC+00:00)

Daily predictions for brighter satellites

Satellite Brightness Start Highest point End
(mag) Time Altitude Azimuth Time Altitude Azimuth Time Altitude Azimuth
Cosmos 2297 Rocket 2.6 09:42:42 10° N 09:47:59 41° ENE 09:53:15 10° SE
COSMO-SKYMED 1 2.6 09:47:28 10° NNE 09:51:28 53° E 09:55:29 10° S
SAR-Lupe-1 4.1 09:49:52 10° SSE 09:53:21 54° ENE 09:56:51 10° N
Cosmos 1980 Rocket 2.9 09:49:28 10° SSW 09:55:01 57° WNW 10:00:33 10° N
Cosmos 2208 Rocket 4.1 09:51:48 10° NNW 09:57:00 87° WSW 10:02:14 10° SSE
SEDSat Delta rocket 3.8 09:51:43 10° SW 09:57:23 77° SSE 10:03:39 10° ENE
Cosmos 2369 3.7 09:59:05 10° SSW 10:04:47 85° ESE 10:10:30 10° NNE
Palapa B4 Rocket 3.7 10:00:28 10° WSW 10:07:41 81° SSE 10:11:45 14° ENE
Meteor 1-25 Rocket 4.2 10:03:02 10° N 10:08:48 78° E 10:14:28 10° S
Delta 202 3.8 10:03:58 10° WSW 10:09:21 86° SSE 10:15:24 14° ENE
YAOGAN 1 3.5 10:06:30 10° SE 10:09:55 24° ENE 10:13:20 10° NNE
Okean 1-7 Rocket 3.9 10:07:38 10° N 10:11:57 70° W 10:16:16 10° S
Meteor 1-5 Rocket 4.4 10:08:18 10° N 10:13:34 49° E 10:19:00 10° SSE
Palapa 6 Rocket 3.3 10:14:34 10° SW 10:18:20 44° SSE 10:20:46 18° E
Cosmos-2242 3.2 10:16:54 10° S 10:21:05 72° W 10:25:17 10° N
Cosmos 1607 4.2 10:15:07 10° N 10:21:09 47° ENE 10:27:12 10° SE
COSMOS 2455 2.8 10:20:05 10° SSW 10:26:05 81° ESE 10:32:06 10° NNE
Helios 1A Rocket 3.4 10:23:23 10° N 10:26:39 47° WNW 10:29:55 10° SSW
Cosmos 2360 Rocket 3.7 10:24:21 10° SE 10:27:45 16° ESE 10:28:06 16° E
Spot 4 Rocket 4.2 10:23:54 10° SSE 10:28:44 45° ENE 10:33:35 10° N
Cosmos 2333 Rocket 3.1 10:24:41 10° SSE 10:29:31 29° ESE 10:31:45 22° ENE
CZ-4C R/B 3.6 10:21:44 10° N 10:29:40 44° ENE 10:38:16 10° SE
NOSS 3-1 (C) 3.8 10:28:36 10° SSE 10:32:06 23° ESE 10:32:47 22° E
Delta 168 4.1 10:28:47 10° W 10:32:31 43° SSW 10:37:44 10° SE
Cosmos 1553 Rocket 4.0 10:31:41 10° S 10:37:45 84° W 10:43:54 10° N
Cosmos 2227 Rocket 2.3 10:33:51 10° N 10:39:15 47° ENE 10:44:39 10° SE
BREEZE-M DEB (TANK) 3.5 10:38:46 10° S 10:39:20 13° SSE 10:39:20 13° SSE
SL-19 R/B 4.2 10:36:46 10° SSE 10:41:46 49° ENE 10:46:53 10° N
H-2A R/B 3.8 10:39:28 10° NNW 10:41:58 17° NNE 10:41:58 17° NNE
Cosmos 1953 Rocket 3.6 10:38:58 10° N 10:43:24 81° W 10:47:49 10° S
NOAA 15 4.5 10:40:11 10° SSE 10:45:28 80° ENE 10:50:45 10° N
Cosmos 1812 Rocket 3.7 10:42:55 10° SSE 10:47:05 47° E 10:47:55 41° ENE
IRAS Rocket 4.2 10:42:59 10° SSE 10:48:22 56° ENE 10:53:42 10° N
Cosmos 2322 Rocket 2.8 10:46:00 10° SSE 10:51:04 35° ESE 10:51:40 34° E
BlueWalker 3 2.7 10:49:19 10° NNW 10:51:37 34° N 10:51:37 34° N
Hubble Space Telescope 3.1 10:54:01 10° NNW 10:54:22 10° NNW 10:54:22 10° NNW
USA 308 3.2 10:53:27 10° SW 10:54:47 33° WSW 10:54:47 33° WSW
Yuri Rocket 4.2 10:48:11 10° WNW 10:56:46 68° NNE 10:59:31 37° E
Meteor 2-6 Rocket 4.3 10:53:21 10° S 10:58:48 73° W 11:04:26 10° N
ATLAS 5 CENTAUR R/B 0.5 10:58:01 10° WSW 10:59:57 63° SW 10:59:57 63° SW
PSLV R/B 3.7 11:01:13 10° S 11:05:11 65° WSW 11:09:09 10° NNW
Meteor 2-10 4.3 11:02:03 10° N 11:07:34 76° W 11:13:14 10° S
Atlas Centaur 2 2.1 11:09:56 10° W 11:12:41 40° WNW 11:12:41 40° WNW
ATLAS 2A CENTAUR R/B 3.3 11:03:46 10° WNW 11:13:29 39° N 11:13:33 39° N
NOAA 6 4.0 11:09:24 10° S 11:14:30 81° WSW 11:19:36 10° NNW
ARIANE 5 DEB (SYLDA) 4.3 11:12:46 10° SW 11:14:33 16° S 11:14:33 16° S
Cosmos 1867 3.4 11:09:56 10° NNW 11:15:21 85° ENE 11:20:45 10° SSE
CARTOSAT-1 4.1 11:11:16 10° S 11:14:10 44° S 11:14:10 44° S
IUS-18 SRM-1 3.6 11:14:45 10° SW 11:18:05 48° SE 11:18:30 47° SE
SL-16 R/B 2.8 11:13:32 10° SSW 11:19:01 54° WNW 11:21:49 28° N
NOSS 2-1 (D) 4.4 11:21:43 10° SW 11:27:15 49° WNW 11:27:40 47° NW
USA 59 Rocket 1.1 11:22:26 10° SW 11:27:39 41° WNW 11:28:10 40° NW
Ariane H10+ 3.5 11:23:05 10° WSW 11:29:33 28° SSW 11:30:55 25° S
Cosmos 2221 3.8 11:26:09 10° SSW 11:30:01 36° W 11:30:36 34° WNW
Cosmos 1386 Rocket 4.5 11:41:26 75° NW 11:41:48 78° W 11:48:04 10° S
